[[{"header":{"parameterUnit":"m.s-1","parameterCategory":1,"la1":30.2991,"la2":30.254,"lo1":-89.0895,"lo2":-89.0444,"dy":0.0017,"dx":0.0017,"nx":28,"ny":28,"refTime":"2024-04-25T21:00:00:Z","depth":0,"parameterNumber":2,"parameterNumberName":"U-component_of_WINDS"},"data":[0,0,0,0,0,0,0,0,0,0,0,0,0,0,0,0,0,0,0,0,0,0,0,0,0,0,0,0,0,0,0,0,0,0,0,0,0,0,0,0,0,0,0,0,0,0,0,0,0,0,0,0,0,0,0,0,0,0,-5.3448,-5.3449,0,-5.3546,-5.3547,-5.3548,-5.3522,-5.352,-5.3518,-5.3516,-5.3614,-5.3618,-5.3623,0,0,0,0,0,0,0,0,0,0,0,0,0,-5.3236,-5.324,-5.3448,-5.3449,-5.345,-5.3546,-5.3547,-5.3549,-5.3522,-5.352,-5.3517,-5.3515,-5.3612,-5.3618,-5.3623,0,0,0,0,0,0,0,0,0,0,0,0,0,-5.333,-5.3241,-5.3448,-5.3449,-5.345,-5.3546,-5.3547,-5.3549,-5.3522,-5.3519,-5.3517,-5.3514,-5.3611,-5.3617,-5.3624,-5.3724,0,0,-5.3644,-5.3647,0,0,0,0,0,0,0,0,-5.3325,-5.3338,-5.3447,-5.3449,-5.345,-5.3519,-5.3508,-5.3608,-5.3523,-5.3495,-5.3516,-5.3512,-5.3584,-5.3593,-5.3618,-5.3729,-5.3733,-5.3645,-5.3649,-5.3652,-5.3654,0,0,0,0,0,0,0,-5.3318,-5.3334,-5.3487,-5.3449,-5.3451,-5.3444,-5.3454,-5.3527,-5.3555,-5.3497,-5.3495,-5.3507,-5.3585,-5.3612,-5.362,-5.3734,-5.3645,-5.365,-5.3655,-5.3657,-5.3932,-5.3935,0,0,0,0,0,0,-5.3311,-5.3328,-5.3483,-5.3489,-5.3379,-5.345,-5.3461,-5.35,-5.3554,-5.356,-5.351,-5.3506,-5.3602,-5.3612,-5.3623,-5.3743,-5.3652,-5.3658,-5.3662,-5.3929,-5.3933,-5.3936,0,0,0,0,0,0,-5.3307,-5.3325,-5.3479,-5.3409,-5.3428,-5.3457,-5.35,-5.3503,-5.353,-5.3564,-5.3568,-5.3532,-5.36,-5.3614,-5.3699,-5.3746,-5.3661,-5.3667,-5.3925,-5.393,-5.3934,-5.3984,0,0,0,0,0,0,-5.3301,-5.3324,-5.3362,-5.341,-5.3432,-5.3554,-5.3503,-5.3507,-5.3542,-5.3537,-5.3586,-5.3591,-5.3598,-5.3689,-5.3706,-5.3754,-5.3672,-5.392,-5.3927,-5.3933,-5.3978,-5.399,-5.4,0,0,0,0,0,-5.3293,-5.3372,-5.3364,-5.3383,-5.3481,-5.3557,-5.3569,-5.3577,-5.3546,-5.3584,-5.3606,-5.359,-5.3739,-5.3698,-5.3717,-5.3767,-5.3917,-5.3925,-5.3932,-5.3973,-5.3988,-5.4,0,0,0,0,0,0,-5.3328,-5.3378,-5.337,-5.3467,-5.3508,-5.3552,-5.3601,-5.3592,-5.3642,-5.3636,-5.3642,-5.3654,-5.3741,-5.3763,-5.3717,-5.3867,-5.3824,-5.3835,-5.3849,-5.3863,-5.3873,-5.3865,-5.3678,0,0,0,0,0,-5.3347,-5.3406,-5.3446,-5.3527,-5.3549,-5.3572,-5.3605,-5.3608,-5.365,-5.3667,-5.3695,-5.3737,-5.3793,-5.3829,-5.3883,-5.3983,-5.3992,-5.4027,-5.4038,-5.4046,-5.4055,-5.4108,-5.4124,-5.396,-5.396,-5.396,0,0,-5.3386,-5.3421,-5.3457,-5.3535,-5.3567,-5.3627,-5.3586,-5.3651,-5.3695,-5.3677,-5.3758,-5.3781,-5.3828,-5.392,-5.3963,-5.3942,-5.4103,-5.4056,-5.4063,-5.4067,-5.4118,-5.4133,-5.4147,-5.3965,-5.3965,-5.3964,0,0,-5.3488,-5.3522,-5.3592,-5.3626,-5.3676,-5.3691,-5.3708,-5.3755,-5.3769,-5.3852,-5.3839,-5.3892,-5.3989,-5.4022,-5.4052,-5.4169,-5.4155,-5.4187,-5.4242,-5.4294,-5.4307,-5.4318,-5.4358,-5.4373,-5.4196,-5.4196,-5.4196,0,-5.3531,-5.362,-5.363,-5.3696,-5.373,-5.3718,-5.3789,-5.3821,-5.3886,-5.3909,-5.3886,-5.4008,-5.4038,-5.4138,-5.4167,-5.4192,-5.4211,-5.4179,-5.4305,-5.4316,-5.4327,-5.4365,-5.438,-5.42,-5.4199,-5.4199,-5.4198,0,-5.3669,-5.3732,-5.3783,-5.3847,-5.3887,-5.3956,-5.3975,-5.4015,-5.4014,-5.4032,-5.4116,-5.4153,-5.4214,-5.4239,-5.4239,-5.4339,-5.4324,-5.4303,-5.4259,-5.4346,-5.4381,-5.4396,-5.4204,-5.4203,-5.4202,-5.4201,0,0,-5.3792,-5.3862,-5.388,-5.3908,-5.3964,-5.4012,-5.408,-5.4141,-5.4174,-5.422,-5.4276,-5.436,-5.4341,-5.4375,-5.4379,-5.4425,-5.4513,-5.4398,-5.4399,-5.4416,-5.4624,-5.4637,-5.4654,-5.4506,-5.4509,-5.4511,-5.4619,0,-5.3897,-5.4017,-5.4028,-5.4136,-5.4193,-5.4184,-5.4243,-5.4283,-5.4302,-5.4353,-5.4374,-5.4433,-5.4404,-5.4425,-5.447,-5.4493,-5.4554,-5.4486,-5.4556,-5.4559,-5.4542,-5.4673,-5.4687,-5.4786,-5.4633,-5.4636,-5.4637,0,-5.4035,-5.4085,-5.4198,-5.4246,-5.427,-5.4323,-5.4379,-5.4429,-5.4474,-5.4485,-5.4524,-5.4523,-5.4592,-5.4549,-5.4644,-5.4597,-5.4627,-5.4643,-5.4647,-5.4651,-5.4601,-5.4678,-5.4819,-5.4833,-5.466,-5.4658,-5.4656,0,-5.411,-5.4207,-5.4287,-5.4312,-5.437,-5.4407,-5.4433,-5.4475,-5.4511,-5.4561,-5.4584,-5.4641,-5.4671,-5.4715,-5.4729,-5.4696,-5.4824,-5.4781,-5.4833,-5.4832,-5.4857,-5.4855,-5.5002,-5.4882,-5.4882,-5.4881,-5.4881,0,-5.4224,-5.4293,-5.4321,-5.437,-5.4447,-5.446,-5.4536,-5.456,-5.4598,-5.4651,-5.4648,-5.4697,-5.4714,-5.4767,-5.4778,-5.4855,-5.4869,-5.4879,-5.488,-5.4877,-5.4876,-5.4894,-5.4887,-5.4885,-5.4884,-5.4884,-5.4883,0,-5.432,-5.4342,-5.4428,-5.4477,-5.449,-5.4545,-5.4586,-5.4633,-5.4652,-5.4719,-5.4736,-5.4766,-5.4827,-5.4847,-5.4921,-5.4929,-5.5017,-5.5015,-5.5002,-5.5001,-5.5051,-5.5045,-5.5213,-5.5235,-5.5103,-5.5104,-5.5105,0,-5.4389,-5.4442,-5.4497,-5.4532,-5.456,-5.4617,-5.4654,-5.4669,-5.4708,-5.4764,-5.4804,-5.4866,-5.4915,-5.5014,-5.5042,-5.5099,-5.5095,-5.5151,-5.5104,-5.5099,-5.5093,-5.5089,-5.5093,-5.5158,-5.516,-5.5161,-5.5162,0,-5.451,-5.4519,-5.4572,-5.463,-5.4674,-5.472,-5.4764,-5.4793,-5.4815,-5.4858,-5.4922,-5.496,-5.5037,-5.5097,-5.5156,-5.5182,-5.5175,-5.5177,-5.5191,-5.5187,-5.5176,-5.518,-5.5023,-5.5172,-5.5171,-5.517,-5.517,-5.5169,-5.4593,-5.464,-5.4685,-5.4745,-5.478,-5.4822,-5.4868,-5.4894,-5.4947,-5.5011,-5.5017,-5.5085,-5.513,-5.5208,-5.5237,-5.529,-5.5274,-5.5296,-5.53,-5.5305,-5.5307,-5.5171,-5.5301,-5.5301,-5.5301,-5.53,-5.53,0,-5.4711,-5.4741,-5.4796,-5.4858,-5.4905,-5.4897,-5.4946,-5.4985,-5.5045,-5.5088,-5.5137,-5.521,-5.5269,-5.5303,-5.5362,-5.5398,-5.5396,-5.5413,-5.5408,-5.5414,-5.532,-5.53,-5.5413,-5.5413,-5.5413,-5.5413,-5.5413,-5.5413,-5.4778,-5.4856,-5.487,-5.4965,-5.4994,-5.5061,-5.509,-5.5128,-5.5162,-5.5244,-5.5293,-5.5315,-5.5354,-5.5416,-5.547,-5.5478,-5.5499,-5.5517,-5.5523,-5.5433,-5.5421,-5.541,-5.5391,-5.5522,-5.5522,-5.5613,-5.5613,-5.5614]},{"header":{"parameterUnit":"m.s-1","parameterCategory":1,"la1":30.2991,"la2":30.254,"lo1":-89.0895,"lo2":-89.0444,"dy":0.0017,"dx":0.0017,"nx":28,"ny":28,"refTime":"2024-04-25T21:00:00:Z","depth":0,"parameterNumber":3,"parameterNumberName":"V-component_of_WINDS"},"data":[0,0,0,0,0,0,0,0,0,0,0,0,0,0,0,0,0,0,0,0,0,0,0,0,0,0,0,0,0,0,0,0,0,0,0,0,0,0,0,0,0,0,0,0,0,0,0,0,0,0,0,0,0,0,0,0,0,0,3.7774,3.7774,0,3.7797,3.7797,3.7797,3.7747,3.7746,3.7744,3.7742,3.7764,3.7766,3.7768,0,0,0,0,0,0,0,0,0,0,0,0,0,3.7686,3.7688,3.7774,3.7774,3.7774,3.7796,3.7797,3.7797,3.7747,3.7745,3.7744,3.7742,3.7763,3.7765,3.7768,0,0,0,0,0,0,0,0,0,0,0,0,0,3.7718,3.7689,3.7774,3.7752,3.7751,3.7796,3.7797,3.7797,3.7748,3.7745,3.7743,3.7741,3.7762,3.7765,3.7768,3.7835,0,0,3.7778,3.7779,0,0,0,0,0,0,0,0,3.7717,3.7722,3.7755,3.7754,3.7752,3.7767,3.7774,3.781,3.7748,3.7749,3.7742,3.774,3.7766,3.7769,3.7778,3.7836,3.7837,3.7778,3.778,3.7781,3.7782,0,0,0,0,0,0,0,3.7714,3.772,3.7783,3.7756,3.7754,3.7741,3.7743,3.778,3.7771,3.7749,3.7745,3.7749,3.7765,3.7776,3.7779,3.7838,3.7778,3.7781,3.7782,3.7784,3.7954,3.7956,0,0,0,0,0,0,3.7715,3.7719,3.7782,3.7783,3.7728,3.7745,3.7747,3.7764,3.777,3.7769,3.7751,3.7746,3.7772,3.7775,3.7779,3.786,3.7781,3.7784,3.7786,3.7951,3.7954,3.7957,0,0,0,0,0,0,3.7713,3.7721,3.7781,3.775,3.7757,3.7749,3.7769,3.7766,3.7776,3.7772,3.777,3.7763,3.777,3.7775,3.7822,3.786,3.7785,3.7788,3.7948,3.7952,3.7956,3.802,0,0,0,0,0,0,3.7711,3.7721,3.7746,3.7751,3.7759,3.7824,3.7771,3.7768,3.7782,3.7777,3.7783,3.7782,3.7768,3.7818,3.7825,3.7862,3.7791,3.7945,3.795,3.7954,3.8015,3.8026,3.8035,0,0,0,0,0,3.7708,3.7763,3.7748,3.7756,3.779,3.7826,3.7831,3.7815,3.7785,3.7811,3.7808,3.7781,3.7854,3.7823,3.7831,3.787,3.7942,3.7948,3.7954,3.801,3.8024,3.8035,0,0,0,0,0,0,3.7761,3.7763,3.7746,3.7804,3.7816,3.7818,3.7849,3.7829,3.7849,3.7843,3.7821,3.7823,3.7875,3.7877,3.7842,3.7936,3.7893,3.7901,3.7933,3.7946,3.7956,3.7955,3.7793,0,0,0,0,0,3.7779,3.7809,3.7809,3.786,3.7866,3.7857,3.7872,3.7859,3.787,3.7874,3.7875,3.7886,3.7912,3.7929,3.7952,3.8015,3.8016,3.8045,3.8056,3.8064,3.8071,3.8106,3.812,3.7977,3.7977,3.7977,0,0,3.7817,3.7822,3.7842,3.787,3.7878,3.7909,3.7862,3.7896,3.7919,3.7879,3.7925,3.7926,3.7937,3.7993,3.8018,3.7996,3.8111,3.8072,3.8079,3.8081,3.8114,3.8128,3.814,3.7981,3.798,3.798,0,0,3.7903,3.7909,3.7953,3.7963,3.7975,3.7969,3.798,3.7986,3.7985,3.8031,3.8003,3.8029,3.8073,3.8083,3.8094,3.8186,3.8163,3.8194,3.8248,3.8283,3.8294,3.8304,3.8338,3.835,3.8201,3.8201,3.8201,0,3.7949,3.7995,3.7978,3.8016,3.803,3.7997,3.8042,3.8051,3.807,3.808,3.8056,3.8112,3.8117,3.8176,3.8199,3.8208,3.822,3.8193,3.8294,3.8304,3.8313,3.8345,3.8358,3.8205,3.8205,3.8204,3.8204,0,3.8051,3.8084,3.8118,3.8139,3.8157,3.8198,3.8187,3.8207,3.8193,3.819,3.8238,3.8243,3.8267,3.828,3.8266,3.8338,3.8324,3.8297,3.8254,3.833,3.8361,3.8373,3.8211,3.8209,3.8208,3.8207,0,0,3.8169,3.8183,3.8196,3.8206,3.8218,3.8243,3.8283,3.8308,3.8326,3.8341,3.8374,3.8414,3.839,3.8402,3.8389,3.8419,3.8494,3.8388,3.8388,3.8409,3.8574,3.8595,3.861,3.8478,3.8481,3.8482,3.8574,0,3.8255,3.8325,3.8312,3.838,3.8411,3.8381,3.8416,3.8428,3.8426,3.8452,3.8449,3.8478,3.8444,3.8451,3.848,3.8479,3.8527,3.8472,3.8509,3.8511,3.8508,3.8625,3.8647,3.8733,3.8585,3.8587,3.8589,0,3.8365,3.8386,3.8457,3.8467,3.8479,3.8511,3.8534,3.8559,3.8572,3.8569,3.8584,3.8566,3.8606,3.8562,3.8618,3.8581,3.8595,3.8597,3.86,3.8603,3.8555,3.8633,3.876,3.8773,3.8607,3.8605,3.8604,0,3.8446,3.8491,3.8541,3.855,3.8562,3.8585,3.8591,3.8602,3.8619,3.8639,3.865,3.8674,3.8687,3.8706,3.8695,3.8664,3.8753,3.8708,3.8752,3.8753,3.8772,3.8771,3.8905,3.8781,3.8781,3.878,3.878,0,3.8543,3.8589,3.8578,3.8608,3.8658,3.8643,3.8693,3.8695,3.8705,3.8736,3.8711,3.874,3.8723,3.8751,3.8743,3.8791,3.8797,3.8795,3.8793,3.8798,3.8799,3.8808,3.8802,3.8784,3.8783,3.8782,3.8782,0,3.8642,3.8636,3.8688,3.8697,3.87,3.8736,3.8743,3.8772,3.8769,3.8808,3.8816,3.8812,3.8843,3.8835,3.8868,3.8863,3.8924,3.8913,3.892,3.8918,3.8963,3.8959,3.9107,3.9127,3.8989,3.8991,3.8992,0,3.8705,3.874,3.8752,3.8772,3.878,3.8811,3.8829,3.8815,3.8835,3.8853,3.888,3.891,3.8933,3.8985,3.8984,3.9011,3.9001,3.9051,3.9005,3.901,3.9003,3.9002,3.9006,3.9061,3.9062,3.9063,3.9064,0,3.8819,3.8815,3.8841,3.8868,3.889,3.891,3.8927,3.8944,3.8933,3.8956,3.8988,3.9007,3.9042,3.9073,3.9097,3.9103,3.9082,3.9079,3.9091,3.9097,3.91,3.9101,3.8946,3.9076,3.9075,3.9074,3.9073,3.9073,3.8902,3.8932,3.8947,3.8978,3.899,3.9007,3.9035,3.9037,3.9065,3.9093,3.9084,3.9122,3.9135,3.9166,3.9175,3.9205,3.9186,3.9202,3.9207,3.9211,3.9218,3.9095,3.9209,3.9209,3.9208,3.9208,3.9208,0,3.9015,3.9024,3.9053,3.9079,3.9104,3.9083,3.9102,3.9124,3.9158,3.9173,3.9197,3.9236,3.9266,3.9268,3.9296,3.932,3.9311,3.9327,3.9326,3.9328,3.9233,3.922,3.9334,3.9334,3.9334,3.9334,3.9334,3.9334,3.9077,3.9128,3.9126,3.9183,3.919,3.9228,3.9241,3.9257,3.9269,3.9314,3.9339,3.9341,3.9351,3.938,3.9407,3.9407,3.9419,3.9439,3.9436,3.9347,3.9334,3.9322,3.9311,3.9442,3.9442,3.9529,3.953,3.953]}]]